STARLINK-32251 (60940 NORAD) Tracking and Keplerian Element Data

This shows tracking and keplerian element data for the satellite.

Feedback or suggestion? Click here.




ElementValue
Catalog60940
NameSTARLINK-32251
Epoch Orbit773
Epoch Day286.48016002
Epoch Year2024
RAAN355.7953
Inclination53.1585
Eccentricity0.0001302
Argument of Perigee64.0008
Mean Anonmoly296.1131
Mean Motion15.39620704
Decay Rate4.89E-05
L11 60940U 24155S 24286.48016002 .00004890 00000+0 13216-3 0 9995
L22 60940 53.1585 355.7953 0001302 64.0008 296.1131 15.39620704 7736



Live tracking and technical data element details for STARLINK-32251 (NORAD 60940). STARLINK-32251 can be tracked NOW for your location showing map with azimuth and elevation plus other details from your city location.







IsCatalogInMostPopularTable: catalog: 60940, numindb: 9
Update: records affected: 1



GetName: 60940 STARLINK-32251

Hit Count: updated at: Fri, 06 Dec 2024 12:13:44 GMT